Flag for U.S.A. Weather past 2 weeks in Mason, Ohio, U.S.A.

Now
60 °F

Sunny.


Feels Like: 60 °F
Forecast: 49 / 79 °F
Wind: 5 mph from Southeast

Location: Butler County Regional Airport

Current Time: May 23, 2015 at 9:59:44 AM

Latest Report: May 23, 2015 at 8:53 AM


Visibility: 10 mi

Pressure: 30.40 "Hg

Humidity: 67%

Dew point: 49 °F

Location of MasonLocation

Historic Weather in Mason — Graph

°F

Mason temperature yesterday

Maximum temperature yesterday: 76 °F (at 3:53 PM)
Minimum temperature yesterday: 38 °F (at 5:53 AM)
Average temperature yesterday: 58 °F

Past Weeks' High & Low Weather Summary

 TemperatureHumidityPressure
High89 °F (May 8, 3:53 PM)100% (May 19, 12:53 AM)30.42 "Hg (May 19, 12:53 AM)
Low38 °F (May 22, 5:53 AM)29% (May 8, 3:53 PM)29.86 "Hg (May 11, 5:53 PM)
Average66 °F69%30.12 "Hg
* Reported May 8 7:53 AM — May 23 7:53 AM, Mason, Weather by CustomWeather, © 2015

Note: Actual official high and low records may vary slightly from our data, if they occured in-between our weather recording intervals... More about our weather records

Advertising

Mason weather history for previous 24 hours

 ConditionsComfort  
Time TempWeatherWind HumidityBarometerVisibility
7:53 AM
Sat, May 23
55 °FSunny.No wind90%30.38 "Hg9 mi
6:53 AM52 °FFog.No wind93%30.36 "Hg6 mi
5:53 AM50 °FClear.No wind96%30.35 "Hg7 mi
4:53 AM47 °FClear.No wind97%30.33 "Hg8 mi
3:53 AM47 °FFog.No wind97%30.31 "Hg6 mi
2:53 AM47 °FFog.No wind97%30.30 "Hg6 mi
1:53 AM48 °FClear.No wind93%30.30 "Hg10 mi
12:53 AM50 °FClear.No wind89%30.30 "Hg10 mi
11:53 PM
Fri, May 22
51 °FClear.No wind89%30.29 "Hg10 mi
10:53 PM53 °FClear.No wind83%30.28 "Hg10 mi
9:53 PM57 °FClear.3 mph74%30.25 "Hg10 mi
8:53 PM63 °FPassing clouds.No wind63%30.23 "Hg10 mi
7:53 PM72 °FSunny.6 mph40%30.21 "Hg10 mi
6:53 PM74 °FBroken clouds.7 mph38%30.21 "Hg10 mi
5:53 PM75 °FSunny.6 mph39%30.20 "Hg10 mi
4:53 PM74 °FPassing clouds.8 mph37%30.20 "Hg10 mi
3:53 PM76 °FScattered clouds.8 mph36%30.19 "Hg10 mi
2:53 PM75 °FScattered clouds.9 mph40%30.20 "Hg10 mi
1:53 PM74 °FPassing clouds.9 mph41%30.20 "Hg10 mi
12:53 PM72 °FSunny.5 mph44%30.21 "Hg10 mi
11:53 AM69 °FSunny.6 mph47%30.22 "Hg10 mi
10:53 AM64 °FSunny.6 mph56%30.23 "Hg10 mi
9:53 AM59 °FSunny.6 mph62%30.22 "Hg10 mi
Weather by CustomWeather, © 2015

See weather overviewHow to use our weather pages